Showing default

ESSA 4 (TOS-B), 2657

Orbit data source: Space-Track

ESSA 4 (TOS-B), 2657 is a payload satellite owned by ESSA (US) in SSO that was launched on Thu, 26 Jan 1967 UTC via a THOR DELTA E launch vehicle from the Air Force Western Test Range (AFWTR). Payload-class satellites include a variety of spacecraft equipped with specific instruments for various scientific and technological missions. These include communications satellites like Starlink; space stations such as the ISS; scientific satellites like the Hubble; Earth observation satellites from companies like Planet Labs, Umbra, and HawkEye 360; GPS; miniature CubeSats for education and research; and military/defense satellites.

Loading next visibility...
Identifier
2657, 1967-006A
Orbit
SSO
Country
Flag of USUS
Related business
Manufacturer
RCA/East Windsor
Mission
Non-operational Civil Weather
Bus & Motor
TIROS I, Unknown motor
Mass
132 kg wet, 132 kg dry
Launch date (UTC)
1967-01-26 (59 years ago)
Launch vehicle
THOR DELTA E
Launch site
Air Force Western Test Range (AFWTR)
Object type
Payload
Rocket body
Debris
Shape & HBR
Cyl, 0.6 m
Radar Cross Section
0.994 m², Medium (>0.1 m² and < 1m²)

Expand to show TLE details & history
Last TLE update: 7 hours ago

TLE from 7 hours ago
0 ESSA 4 (TOS-B)
1 02657U 67006A   25259.29309183 -.00000028  00000-0  10404-3 0  9990
2 02657 102.0892  79.2533 0073253  95.8467  77.0255 12.69885409717779
Epoch: 2025-09-16T07:02Z
TLE epoch observation values (Epoch: 2025-09-16T07:02:03.134Z)
Latitude
6.09689°
Longitude
159.55918°
Altitude
1,372.042 km
Speed
7.179 km/s
True Right ascension
17h 22m 13s
True Declination
6° 03' 49"
Sunlit
Object was in daylight at epoch
Visualization orbit readout
Latitude
Unknown
Longitude
Unknown
Altitude
Unknown
Speed
Unknown
Apparent Right ascension
Unknown
Apparent Declination
Unknown
Sunlit
N/A
Visualization observer readout
Local Sidereal Time
07:14:38
Azimuth
Unknown
Elevation
Unknown
Doppler factor
Unknown
Orbital elements
Apogee altitude
1,436.778 km
Perigee altitude
1,323.117 km
Semi-major axis
7,758.085 km
Eccentricity
0.00733
Inclination
102.0892°
RAAN
79.2533°
Arg. of periapsis
95.8467°
True anomaly
77.84514°
Mean anomaly
77.0255°
Eccentric anomaly
77.43516°
Mean motion
3.17623 °/min
Orbital period
113.34 mins
BSTAR
0.00010404
Loading maneuver chart data...
Computing Atmospheric mass density...
Loading historical data...
Loading historical data...
Loading historical data...
Loading historical data...
Loading historical data...
Loading historical data...
Loading historical data...
Other satellites on launch #6 in the year 1967 (1967-01-26 UTC)

Documentation

Showing up to 5 results
|